www.pogodaiklimat.ru

Погода и климат >> Архив погоды >> Россия >> Краснодарский край >> Горный


ПОГОДА в Горном

  • Прогноз погоды в Горном
  • Монитор погоды в Горном
  • Климат города

АРХИВ ПОГОДЫ в Горном

Время (UTC), дата Ветер
(напр.,м/с)
 
Видим.   Явления Облачность Т
(С)
Тd
(С)
f
(%)
Тe
(С)
Тes
(С)
Комфортность P
(гПа)
Po
(гПа)
Тmin
(С)
Tmax
(С)
R
(мм)
R24
(мм)
S
(см)
15 8.12 ЮЗ 4 10 км слабый ливневой дождь 10/10 600 м
[Cb cap]
+5.0 +4.9 99 +1 +1 1021.0 981.6 +5.1 2
18 8.12 ЮЗ 6-11
{11}
10 км слабый ливневой дождь 8/8 600 м
[Cb cap]
+5.8 +4.3 90 +1 +1 1021.7 982.3
21 8.12 ЮЗ 6-13
{14}
20 км {ливн. осадки} 10/10 600 м
[Sc]
+6.6 +4.5 86 +2 +2 1021.8 982.6
00 9.12 Ю 5-11
{15}
20 км {ливн. осадки} 4/4 600 м
[Sc diur, vesp]
+6.9 +4.3 83 +3 +3 1022.2 983.0
03 9.12 Ю 5-11
{11}
50 км 1/1 600 м
[Sc diur, vesp]
+6.5 +3.3 80 +2 +2 1021.9 982.6 +4.9 0.6
06 9.12 ЮЗ 6-12
{13}
50 км 8/0
[Ci]
+6.7 +2.6 75 +2 +2 1021.8 982.5
09 9.12 ЮЗ 7-12
{16}
50 км 6/0
[Ci]
+10.5 +3.1 60 +7 +8 1020.4 981.8
12 9.12 ЮЗ 5-12
{13}
50 км 3/0
[Ci]
+10.6 +2.9 59 +8 +9 1019.8 981.1
15 9.12 ЮЗ 1
{12}
50 км 3/0
[Ci]
+7.6 +2.9 72 +7 +7 1020.5 981.4 +10.8
18 9.12 ЮЗ 2 50 км 3/0
[Ac lent]
+6.8 +2.7 75 +5 +5 1020.5 981.2
21 9.12 ЮЗ 2 50 км 3/0
[Ac lent]
+7.6 -0.1 58 +6 +6 1019.5 980.4
00 10.12 ЮЗ 2 50 км 9/9 600 м
[Sc]
+8.9 -0.3 52 +8 +8 1019.5 980.6
03 10.12 З 1 50 км 4/0
[Ci]
+8.0 -1.0 53 +8 +8 1017.9 978.8 +6.5
06 10.12 Ю 4 50 км 1/0
[Ac lent]
+10.9 -2.8 38 +9 +9 1017.0 978.4
09 10.12 Ю 6-13
{13}
50 км ясно +14.2 -3.1 30 +13 +14 1015.3 977.3
12 10.12 Ю 6-13
{14}
50 км 3/0
[Cc]
+13.5 -2.6 33 +12 +12 1013.5 975.5
15 10.12 Ю 6-12
{15}
50 км 3/0
[Ci sp]
+12.1 -3.2 34 +10 +10 1012.7 974.5 +14.5
18 10.12 Ю 6-12
{16}
50 км 3/3 600 м
[Sc]
+13.4 -4.4 29 +12 +12 1012.6 974.6
21 10.12 ЮЗ 8-24
{24}
10 км слабый ливневой дождь 10/10 600 м
[Cb cap]
+9.0 +4.4 73 +5 +5 1015.7 977.0
00 11.12 ЮЗ 3
{24}
10 км слабый ливневой дождь 10/10 600 м
[Cb cap]
+4.7 +3.7 93 +1 +1 1020.4 980.9
03 11.12 ЮЗ 2 20 км слабый ливневой дождь 10/10 600 м
[Cb cap]
+4.4 +3.5 94 +2 +2 1022.8 983.2 +4.3 14
06 11.12 ЮЗ 3 20 км слабый ливневой дождь 8/8 600 м
[Cb cap]
+4.1 +2.4 89 0 0 1025.1 985.3 +3.6
09 11.12 ЮЗ 4 50 км {ливн. осадки} 9/9 600 м
[Sc diur, vesp]
+6.0 +2.1 76 +2 +3 1025.9 986.4
12 11.12 Ю 6-10
{14}
50 км {ливн. осадки} 9/4 600 м
[Sc diur, vesp Ac lent Ci]
+7.8 +1.2 63 +4 +4 1024.8 985.5
15 11.12 Ю 3
{13}
50 км 8/3 600 м
[Sc diur, vesp Ac lent Ci fib]
+7.0 +0.8 65 +4 +4 1026.3 986.9 +7.9 2
18 11.12 Ю 6-11
{14}
50 км 9/4 600 м
[Sc Ac trans Ci fib]
+7.1 +1.9 69 +3 +3 1025.7 986.3
21 11.12 Ю 7-12
{15}
50 км 6/0
[Ac trans]
+7.7 +2.0 67 +3 +3 1025.5 986.2
00 12.12 ЮЗ 5-10
{16}
50 км 8/0
[Ac lent Ci]
+8.0 -1.9 50 +5 +5 1025.2 986.0
03 12.12 Ю 6-13
{13}
50 км 8/0
[Ac lent Ci fib]
+8.8 -3.0 43 +6 +6 1024.9 985.7 +6.8
06 12.12 ЮЗ 4
{13}
50 км 6/3 600 м
[Sc Ci]
+9.1 -1.5 47 +7 +7 1025.2 986.1
09 12.12 ЮЗ 5-10
{11}
50 км 6/0
[Ci]
+13.5 -1.3 36 +12 +13 1023.4 985.0
12 12.12 ЮЗ 3
{11}
50 км 4/0
[Ci]
+14.0 -2.7 31 +13 +14 1022.5 984.2
15 12.12 ЮЗ 3 50 км 3/0
[Ci fib]
+10.6 -4.8 34 +9 +9 1023.7 984.9 +14.3
18 12.12 ЮЗ 1 50 км ясно +7.2 -3.9 45 +7 +7 1024.1 984.8
21 12.12 штиль 0 50 км ясно +2.2 -2.1 73 +1 +1 1024.5 984.5
00 13.12 СВ 1 50 км ясно -1.1 -3.1 86 -3 -3 1024.4 983.9
03 13.12 штиль 0 50 км ясно -1.4 -3.6 85 -3 -3 1024.3 983.8 -2.3
06 13.12 С 1 50 км 3/0
[Ci]
-0.7 -3.9 79 -3 -2 1024.0 983.5 -3.1
09 13.12 В 1 50 км 3/0
[Ci]
+9.4 -3.5 40 +9 +13 1021.1 982.2
12 13.12 Ю 1 50 км ясно +15.8 -6.5 21 +17 +18 1018.6 980.6
15 13.12 штиль 0 50 км ясно +8.0 -1.8 50 +8 +8 1019.9 980.8 +16.5
18 13.12 штиль 0 50 км ясно +3.3 -3.0 63 +3 +3 1020.6 980.9
21 13.12 штиль 0 50 км ясно -0.3 -3.5 79 -1 -1 1020.4 980.1
00 14.12 С 1 50 км ясно -2.0 -2.1 99 -4 -4 1020.1 979.7
03 14.12 штиль 0 50 км ясно -2.3 -2.5 99 -4 -4 1019.7 979.2 -2.4
06 14.12 штиль 0 50 км 6/0
[Ci]
-1.6 -2.8 92 -3 -2 1019.1 978.8 -2.7
09 14.12 штиль 0 50 км 10/0
[Cs]
+8.8 -0.4 52 +9 +12 1015.5 976.8
12 14.12 ЮЗ 2 50 км 10/0
[Ac lent Cs]
+12.4 -3.6 33 +12 +13 1014.7 976.4
15 14.12 ЮЗ 1 50 км 10/0
[Ac lent Ci sp]
+9.2 -1.8 46 +9 +9 1014.9 976.2 +13.2
18 14.12 штиль 0 50 км 8/0
[Ac lent Ci sp]
+4.7 -1.3 65 +4 +4 1015.6 976.3
21 14.12 штиль 0 50 км 3/0
[Ci sp]
+1.2 -0.3 90 0 0 1016.1 976.3
00 15.12 ЮЗ 2 50 км 3/0
[Ci sp]
+4.8 +1.1 77 +2 +2 1016.5 977.2
03 15.12 ЮЗ 2 50 км 3/0
[Ci sp]
+6.6 +0.7 66 +5 +5 1016.2 977.1 +0.9
06 15.12 ЮЗ 4 50 км 3/0
[Ac cast]
+8.0 +0.7 60 +5 +5 1017.4 978.4
09 15.12 Ю 5 50 км 9/3 600 м
[Sc diur, vesp Ac und Ci fib]
+11.7 -1.0 41 +10 +10 1016.4 978.0
12 15.12 ЮЗ 4 50 км 9/6 600 м
[Sc Ac lent]
+12.0 -2.3 37 +10 +11 1016.6 978.2

 

Местоположение метеостанции Горный (Краснодарский край, Россия): широта 44.28 долгота 39.27 высота над уровнем моря 323 м.

В архиве по умолчанию представлена погода в Горном за последнюю неделю. Архивные данные за месяц целиком и за предыдущие месяцы, начиная с января 2011 года, Вы можете получить, выбрав интересующий диапазон дат из раскрывающегося списка и нажав кнопку "Ввод!".

Внимание! Время в таблицах - всемирное. Для получения местного времени необходимо прибавить поправку, которая в Горном равна 3 ч.

Смотрите также архив погоды в соседних городах и на ближайших метеорологических станциях:

Погода в Туапсе (Краснодарский край, Россия) (26 км)
Погода в Горячем Ключе (Краснодарский край, Россия) (41 км)
Погода в Джубге (Краснодарский край, Россия) (44 км)
Погода в Шунтуке (Адыгея, Россия) (71 км)
Погода в Белореченске (Краснодарский край, Россия) (72 км)
Погода в Майкопе (Адыгея, Россия) (75 км)
Погода в Гузерипле (Адыгея, Россия) (75 км)
Погода в Сочи (Краснодарский край, Россия) (88 км)
Погода в Краснодаре (Краснодарский край, Россия) (88 км)
Погода в Геленджике (Краснодарский край, Россия) (100 км)

Пояснения к столбцам:

Ветер - указаны скорость ветра в м/с - средняя за 10 мин, порывы в срок и между сроками (в фигурных скобках) и направление, откуда дует ветер: С - северный, СВ - северо-восточный, В - восточный, ЮВ - юго-восточный, Ю - южный, ЮЗ - юго-западный, З - западный, СЗ - северо-западный.
Видимость - горизонтальная дальность видимости в метрах или километрах. При видимости от 1 до 10 км при отсутствии осадков обычно наблюдается дымка, при ухудшении видимости до 1 км и менее - туман. В сухую погоду видимость может ухудшаться дымом, пылью или мглою.
Явления - указаны атмосферные явления, наблюдавшиеся в срок или в последний час перед сроком; фигурными скобками обозначены явления, наблюдавшиеся между сроками (за 1-3 часа до срока); квадратными скобками обозначены град или гололедные отложения с указанием их диаметра в мм.
Облачность - указаны через наклонную черту общая и нижняя облачность в баллах и высота нижней границы облаков в метрах; квадратными скобками обозначены формы облаков: Ci - перистые, Cs - перисто-слоистые, Cc - перисто-кучевые, Ac - высококучевые, As - высокослоистые, Sc - слоисто-кучевые, Ns - слоисто-дождевые, Cu - кучевые, Cb - кучево-дождевые. Подробнее классификацию облаков см. в Атласе облаков (PDF).
T - Температура воздуха - температура, измеренная на высоте 2 м над землей.
Td - Температура точки росы - температура, при понижении до которой содержащийся в воздухе водяной пар достигнет насыщения.
f - Относительная влажность воздуха - влажноcть воздуха, измеренная на высоте 2 м над землей.
Te - Эффективная температура - температура, которую ощущает одетый по сезону человек в тени. Характеристика душности погоды. При расчете учитывается влияние влажности воздуха и скорости ветра на теплоощущения человека.
Tes - Эффективная температура на солнце - температура, которую ощущает человек, с поправкой на солнечный нагрев. Характеристика знойности погоды. Зависит от высоты солнца над горизонтом, облачности и скорости ветра. Ночью, в пасмурную погоду, а также при ветре 12 м/с и более поправка равна нулю.
P - Атмосферное давление - приведенное к уровню моря атмосферное давление.
Po - Атмосферное давление - измеренное на уровне метеостанции атмосферное давление.
Tmin - Минимальная температура - минимум температуры воздуха на высоте 2 м над землей.
Tmax - Максимальная температура - максимум температуры воздуха на высоте 2 м над землей.
R - Количество осадков - Количество выпавших осадков за период времени, мм. При наведении курсора мыши на число - период времени, за который выпало указанное количество осадков.
R24 - Количество осадков - Количество выпавших осадков за 24 часа, мм.
S - Снежный покров - Высота снежного покрова, см. При наведении курсора мыши на число - состояние снежного покрова и степень покрытия местности в баллах.